Location: La Fredeussais
(48.1780°N, 1.3980°W)
Time: 02:08:19
(UTC+00:00)

Meteor 1-5 Rocket - Pass Details

Date: 09 May 2021
Orbit: 788 x 916 km, 81.2° (Epoch: 13 June)

Event Time Altitude Azimuth Distance (km) Brightness Sun altitude
Rises 21:19:54 0° 349° (N) 3,368 8.4 -14.9°
Reaches altitude 10° 21:22:21 10° 352° (N) 2,415 7.5 -15.2°
Maximum altitude 21:27:47 73° 77° (ENE) 841 4.1 -15.8°
Enters shadow 21:30:56 25° 158° (SSE) 1,557 5.0 -16.1°
